Wind_Speed
49 49 46 43 41 39 38 37 35 32 29 32 34 34 33 32 32 32 31 30 32 35 37 38 39 39 40 42 45 48 51 55 60 67 75 77 71 67
51 50 49 46 43 41 37 35 34 30 25 28 33 34 33 31 32 31 29 27 28 30 31 31 31 32 33 36 40 44 47 51 57 62 71 76 74 69
52 50 49 47 44 42 39 35 33 29 22 22 27 30 30 31 31 29 27 26 25 25 25 24 24 26 30 34 37 40 44 48 52 57 64 71 76 73
49 47 45 44 42 41 38 34 31 27 21 17 21 24 27 28 27 25 24 24 24 24 23 22 22 25 29 33 37 39 42 45 49 52 56 62 72 75
45 43 41 39 37 36 36 33 29 24 19 16 19 21 22 22 21 21 22 22 22 21 21 23 26 29 32 35 38 39 39 41 45 49 53 57 66 72
42 40 38 35 32 31 31 29 26 22 19 16 17 19 19 18 16 17 18 19 18 18 19 23 27 29 30 31 33 35 36 37 40 44 49 52 59 67
39 37 34 31 27 26 26 24 22 20 18 15 16 18 18 17 15 14 14 15 14 14 17 21 22 21 19 15 16 25 33 35 38 41 46 50 55 62
35 33 31 27 24 23 22 21 19 18 16 14 14 15 16 16 14 11 11 11 10 10 14 17 16 11 5 1 6 19 29 31 33 37 44 49 54 60
32 30 27 24 21 20 19 17 16 15 14 12 10 10 11 12 10 7 7 6 4 7 12 13 10 7 8 8 10 18 25 27 31 37 45 50 54 58
28 25 23 21 19 17 16 14 12 11 10 9 8 8 8 8 5 3 4 3 1 7 10 10 8 8 9 11 15 20 24 28 34 42 49 52 54 54
23 22 21 19 16 14 13 12 10 10 10 8 8 8 8 7 5 6 6 4 2 6 7 8 10 11 12 16 21 26 31 36 41 47 50 50 49 49
20 19 18 16 12 11 11 12 11 10 9 9 9 9 9 10 10 9 7 5 4 5 6 8 11 14 17 20 24 31 37 43 46 48 47 45 44 42
16 16 15 11 8 9 12 12 11 10 9 9 10 11 12 13 14 12 10 7 6 6 7 9 12 16 19 24 28 33 37 42 45 47 45 42 39 36
15 14 12 6 5 10 12 11 10 8 9 13 15 15 15 17 17 15 12 9 8 9 10 11 14 17 19 23 29 33 37 39 42 43 43 42 38 36
14 11 6 4 8 12 12 11 10 13 16 19 19 17 17 19 18 15 12 10 11 13 14 16 17 19 21 22 25 30 33 35 38 39 38 37 35 34
6 3 3 7 10 14 15 15 16 19 21 20 18 16 16 16 16 14 12 12 15 17 19 21 22 23 24 24 26 30 32 32 31 32 32 32 32 31
4 3 5 9 13 18 20 19 19 19 20 19 16 15 15 17 16 14 13 15 19 22 23 24 26 29 31 30 30 31 32 34 35 35 33 30 28 26
9 8 8 10 14 20 22 22 21 20 20 19 17 17 17 18 17 15 15 19 23 25 25 24 25 26 26 28 30 30 29 29 28 28 28 26 22 20
11 12 12 11 14 21 24 24 24 22 20 18 16 17 17 16 16 16 18 23 25 25 24 25 26 26 24 22 24 26 26 24 22 20 19 20 21 22
11 13 15 14 15 21 24 24 24 23 20 16 15 15 15 15 15 16 20 24 24 23 24 24 23 23 22 21 18 17 16 17 19 19 19 20 22 24
9 12 16 17 17 20 23 23 22 20 18 16 16 16 15 15 16 17 21 24 25 24 24 22 20 18 17 17 17 16 14 13 15 18 22 23 23 23
8 11 15 18 19 20 21 21 20 20 19 18 17 17 16 16 17 19 21 23 24 23 23 21 19 18 16 16 16 15 15 15 14 16 19 21 23 23
9 11 14 16 18 20 20 21 21 21 20 18 16 16 16 17 18 19 20 20 20 20 19 18 16 15 14 15 15 15 17 18 19 20 21 21 22 22
Wind_Direction
304 298 293 291 290 291 295 297 293 283 269 263 261 261 262 263 263 262 264 268 269 269 271 271 266 260 257 252 246 242 240 237 235 231 225 219 215 215
305 298 291 285 283 285 291 296 298 293 275 258 257 260 263 264 264 266 266 268 269 270 272 272 267 260 256 253 249 244 239 236 233 229 225 219 213 211
307 300 292 285 280 279 283 291 298 296 285 260 254 256 260 265 268 269 267 267 268 269 271 272 268 262 258 255 251 245 238 233 229 225 223 220 213 208
308 303 296 287 280 276 277 283 291 293 286 265 252 253 258 265 268 268 266 266 265 265 269 273 272 267 262 258 252 246 238 231 226 221 217 216 213 207
309 306 300 291 282 275 274 277 283 286 281 265 254 256 261 266 268 267 265 263 262 266 274 278 278 275 269 264 256 248 238 228 221 217 213 210 210 206
310 308 305 297 285 277 273 273 275 278 275 264 252 255 260 264 268 266 262 260 264 272 283 286 288 287 283 271 256 241 230 220 214 210 207 203 204 203
309 308 305 298 289 279 272 267 267 270 269 263 252 253 257 260 262 266 265 262 268 284 296 301 305 304 301 285 250 220 210 207 206 203 198 195 196 198
309 308 305 298 289 282 272 263 260 263 262 260 252 252 254 253 256 263 264 262 273 298 314 323 327 324 334 22 179 185 189 192 192 191 188 185 188 192
307 308 305 298 287 281 271 260 256 256 253 248 243 249 249 245 246 257 259 258 279 324 335 344 4 54 76 75 130 161 170 173 175 177 176 176 181 187
304 307 305 298 286 276 264 253 245 239 232 223 232 247 242 236 238 223 197 200 321 349 353 10 47 84 79 85 113 137 151 159 164 165 164 168 176 183
302 305 303 297 283 268 249 229 219 214 209 215 233 238 226 208 174 159 162 153 45 17 25 45 74 97 100 99 110 124 135 144 150 152 156 162 171 179
301 303 301 294 274 250 222 203 198 202 213 225 228 216 195 174 158 155 157 139 71 54 65 75 90 108 114 112 115 123 129 134 139 144 150 159 169 178
304 304 301 289 252 214 193 188 193 206 218 211 195 181 172 165 160 158 151 130 97 94 101 96 103 114 118 126 125 126 130 135 140 145 151 159 166 170
304 304 301 273 200 177 176 180 190 200 183 167 158 153 155 159 160 156 144 126 120 125 125 120 115 121 126 133 137 134 136 141 147 151 155 158 161 164
298 293 281 199 163 162 163 164 162 155 150 148 145 143 146 152 156 152 142 133 134 139 136 132 127 130 136 139 147 154 149 146 149 153 155 158 162 167
294 260 202 160 155 155 150 142 139 140 140 142 145 146 147 151 154 150 145 141 142 143 139 131 127 131 136 140 143 153 163 164 161 159 161 164 168 173
91 104 138 152 156 155 147 138 135 135 135 137 141 145 151 156 155 150 148 147 147 145 141 133 127 126 127 129 135 141 150 160 167 171 173 173 172 171
85 83 103 135 154 157 150 143 138 135 133 132 131 135 143 151 150 144 146 150 150 149 146 141 135 131 130 134 136 138 141 147 156 163 165 163 163 164
84 83 93 117 147 157 155 151 146 143 141 139 135 135 139 144 144 141 145 151 152 151 149 145 141 138 136 136 137 139 140 142 147 154 161 164 165 168
90 88 92 107 134 155 160 160 157 153 150 147 146 147 145 143 141 140 146 152 153 152 151 149 147 145 142 140 139 143 149 152 155 160 166 171 173 173
104 103 97 103 121 147 161 166 167 167 165 160 153 152 151 147 141 139 146 152 153 153 155 157 159 160 158 153 150 153 158 165 169 170 171 172 174 174
115 122 111 105 114 134 153 164 168 168 166 162 155 150 150 148 142 140 145 152 156 159 162 166 170 172 173 169 164 164 167 169 173 176 176 175 175 175
119 131 126 114 115 126 142 155 162 166 167 166 162 157 153 150 145 142 141 148 155 162 166 170 174 177 181 184 185 182 179 176 175 177 178 178 179 179
Height
5611 5605 5600 5594 5589 5585 5580 5575 5572 5570 5571 5568 5565 5564 5565 5566 5567 5567 5569 5570 5571 5571 5569 5567 5566 5566 5567 5570 5574 5579 5585 5591 5598 5606 5618 5634 5650 5665
5599 5592 5587 5583 5579 5575 5572 5567 5563 5560 5560 5559 5556 5556 5557 5558 5558 5559 5561 5562 5562 5561 5559 5556 5554 5554 5555 5557 5559 5563 5569 5574 5581 5590 5602 5616 5634 5650
5584 5578 5573 5569 5567 5564 5562 5559 5555 5551 5550 5550 5548 5548 5549 5550 5550 5551 5552 5553 5553 5552 5550 5547 5546 5545 5544 5545 5546 5549 5553 5559 5566 5576 5587 5601 5618 5636
5571 5564 5559 5555 5553 5552 5551 5550 5547 5544 5542 5542 5542 5542 5542 5543 5543 5544 5545 5545 5545 5544 5542 5540 5538 5536 5534 5532 5532 5535 5539 5545 5553 5563 5575 5589 5606 5622
5559 5553 5547 5542 5541 5540 5540 5540 5539 5537 5536 5536 5536 5536 5537 5537 5538 5539 5539 5538 5538 5537 5535 5533 5530 5526 5522 5520 5519 5521 5525 5532 5541 5551 5562 5576 5593 5612
5548 5542 5537 5532 5530 5529 5530 5531 5531 5531 5530 5530 5531 5531 5532 5533 5533 5533 5533 5532 5532 5531 5529 5525 5521 5515 5509 5504 5503 5506 5513 5521 5530 5540 5553 5567 5585 5605
5539 5533 5527 5523 5520 5520 5521 5522 5524 5524 5525 5525 5526 5526 5527 5528 5529 5529 5528 5527 5527 5526 5523 5519 5512 5506 5499 5493 5490 5494 5502 5512 5522 5533 5546 5561 5580 5599
5530 5523 5518 5515 5513 5512 5513 5515 5517 5518 5519 5520 5521 5521 5522 5524 5524 5524 5524 5523 5523 5522 5519 5514 5508 5502 5496 5491 5489 5492 5499 5508 5518 5530 5543 5558 5577 5596
5520 5515 5511 5507 5506 5506 5506 5508 5511 5512 5514 5515 5516 5517 5519 5520 5521 5521 5520 5520 5520 5519 5517 5513 5508 5503 5499 5495 5494 5496 5501 5509 5519 5530 5543 5559 5578 5597
5511 5507 5504 5501 5500 5500 5501 5503 5506 5507 5509 5511 5513 5515 5516 5517 5518 5519 5519 5520 5520 5520 5517 5514 5510 5507 5504 5503 5500 5501 5506 5513 5522 5533 5547 5563 5581 5598
5503 5500 5498 5495 5494 5494 5496 5499 5502 5504 5506 5508 5510 5512 5514 5515 5517 5518 5519 5520 5521 5520 5519 5516 5514 5512 5511 5510 5509 5509 5513 5519 5528 5541 5555 5571 5587 5601
5497 5494 5492 5490 5489 5490 5493 5495 5498 5501 5503 5505 5508 5509 5512 5514 5516 5518 5520 5522 5522 5522 5521 5520 5519 5518 5518 5518 5519 5521 5525 5531 5540 5552 5566 5580 5594 5606
5491 5489 5487 5486 5485 5487 5490 5493 5496 5498 5500 5502 5505 5508 5511 5514 5517 5519 5522 5524 5524 5524 5524 5524 5524 5524 5526 5528 5530 5533 5538 5545 5553 5564 5576 5589 5600 5611
5487 5485 5484 5483 5483 5485 5489 5492 5494 5496 5498 5501 5504 5508 5510 5514 5517 5521 5523 5525 5526 5527 5528 5528 5529 5530 5532 5536 5540 5544 5550 5558 5566 5576 5585 5595 5603 5612
5482 5481 5481 5481 5482 5485 5488 5491 5493 5495 5498 5502 5506 5509 5512 5515 5519 5522 5525 5527 5528 5530 5532 5534 5534 5536 5539 5543 5548 5554 5561 5568 5576 5585 5593 5600 5607 5615
5479 5479 5480 5481 5483 5486 5489 5492 5495 5497 5501 5505 5508 5512 5515 5519 5522 5525 5527 5529 5531 5534 5537 5539 5541 5542 5545 5550 5555 5562 5569 5576 5583 5590 5597 5604 5610 5616
5480 5481 5481 5482 5484 5487 5491 5495 5499 5502 5505 5508 5511 5514 5518 5521 5525 5527 5528 5531 5534 5538 5542 5545 5547 5550 5552 5556 5562 5568 5574 5581 5587 5593 5600 5606 5611 5616
5484 5484 5484 5484 5486 5489 5494 5498 5502 5506 5509 5512 5515 5518 5521 5524 5527 5529 5531 5534 5538 5542 5546 5550 5554 5558 5561 5563 5567 5573 5579 5585 5591 5596 5601 5606 5611 5616
5488 5488 5487 5487 5488 5492 5497 5501 5505 5509 5513 5516 5519 5521 5524 5527 5530 5532 5534 5537 5541 5546 5550 5555 5558 5562 5566 5571 5575 5578 5582 5588 5593 5598 5603 5607 5611 5616
5492 5491 5490 5490 5491 5495 5499 5504 5508 5512 5516 5519 5522 5525 5527 5530 5533 5535 5538 5541 5545 5550 5555 5559 5563 5566 5570 5575 5580 5584 5587 5590 5594 5598 5603 5607 5612 5616
5495 5495 5495 5494 5495 5498 5502 5506 5510 5514 5518 5522 5525 5528 5531 5533 5536 5539 5542 5545 5550 5554 5558 5562 5566 5570 5574 5578 5581 5585 5588 5592 5595 5598 5602 5607 5612 5616
5497 5498 5498 5499 5499 5501 5505 5509 5513 5516 5520 5524 5528 5531 5534 5536 5539 5543 5546 5549 5553 5557 5561 5565 5568 5572 5575 5579 5582 5585 5588 5592 5596 5600 5604 5608 5612 5616
5500 5500 5501 5502 5504 5505 5508 5511 5515 5519 5523 5527 5530 5533 5537 5540 5543 5546 5550 5553 5556 5559 5563 5566 5570 5573 5576 5579 5582 5585 5588 5592 5596 5600 5604 5608 5612 5616